Home > Weather > Dubbo > Past weeks

Flag for Australia Past Weather in Dubbo, New South Wales, Australia — Yesterday and Last 2 Weeks

Now
48 °F

Clear.


Feels Like: 44 °F
Forecast: 49 / 62 °F
Wind: 10 mph from East

Location: Dubbo Airport

Current Time: Jun 1, 2016 at 12:24:24 AM

Latest Report: Jun 1, 2016 at 12:00 AM


Visibility: N/A

Pressure: 30.27 "Hg

Humidity: 76%

Dew Point: 41 °F

Location of DubboLocation

Past Weather in Dubbo — Graph

°F

Dubbo Temperature Yesterday

Maximum temperature yesterday: 63 °F (at 1:30 PM)
Minimum temperature yesterday: 36 °F (at 5:00 AM)
Average temperature yesterday: 47 °F

High & Low Weather Summary for the Past Weeks

 TemperatureHumidityPressure
High75 °F (May 22, 1:00 PM)100% (May 19, 1:00 AM)30.36 "Hg (May 19, 1:00 AM)
Low30 °F (May 25, 5:30 AM)37% (May 23, 4:30 PM)29.68 "Hg (May 26, 3:00 PM)
Average52 °F77%30.09 "Hg
* Reported May 16 11:00 PM — May 31 11:00 PM, Dubbo, Weather by CustomWeather, © 2016

Note: Actual official high and low records may vary slightly from our data, if they occured in-between our weather recording intervals... More about our weather records

Advertising

Dubbo Weather History for the Previous 24 Hours

Scroll right to see more
 ConditionsComfort  
Time TempWeatherWind HumidityBarometerVisibility
11:00 PM
Tue, May 31
48 °FClear.10 mph76%30.30 "HgN/A
10:30 PM48 °FClear.9 mph76%30.30 "HgN/A
10:00 PM46 °FClear.7 mph82%30.30 "HgN/A
9:00 PM46 °FClear.10 mph82%30.30 "HgN/A
8:00 PM46 °FClear.8 mph82%30.30 "HgN/A
7:30 PM48 °FClear.7 mph82%30.30 "HgN/A
7:00 PM48 °FClear.7 mph76%30.27 "HgN/A
6:30 PM50 °FClear.7 mph71%30.27 "HgN/A
6:00 PM52 °FClear.8 mph67%30.27 "HgN/A
5:00 PM55 °FClear.7 mph63%30.27 "HgN/A
4:30 PM61 °FClear.8 mph52%30.24 "HgN/A
4:00 PM63 °FSunny.9 mph49%30.24 "HgN/A
3:00 PM63 °FSunny.7 mph49%30.24 "HgN/A
2:00 PM63 °FSunny.8 mph49%30.24 "HgN/A
1:30 PM63 °FSunny.10 mph49%30.27 "HgN/A
1:00 PM61 °FSunny.9 mph52%30.27 "HgN/A
12:30 PM59 °FSunny.10 mph51%30.27 "HgN/A
12:00 PM59 °FSunny.13 mph51%30.30 "HgN/A
11:30 AM59 °FSunny.13 mph51%30.33 "HgN/A
11:00 AM57 °FSunny.12 mph59%30.33 "HgN/A
10:30 AM55 °FSunny.16 mph59%30.33 "HgN/A
10:00 AM52 °FSunny.14 mph67%30.36 "HgN/A
9:30 AM48 °FSunny.8 mph76%30.36 "HgN/A
9:00 AM45 °FSunny.7 mph76%30.36 "HgN/A
8:30 AM45 °FSunny.6 mph81%30.33 "HgN/A
8:00 AM41 °FSunny.7 mph87%30.33 "HgN/A
7:30 AM37 °FSunny.8 mph93%30.33 "HgN/A
7:00 AM36 °FSunny.12 mph93%30.33 "HgN/A
6:30 AM37 °FSunny.14 mph87%30.30 "HgN/A
6:00 AM36 °FSunny.10 mph93%30.30 "HgN/A
5:30 AM36 °FClear.12 mph93%30.30 "HgN/A
5:00 AM36 °FClear.12 mph93%30.30 "HgN/A
4:00 AM37 °FClear.12 mph93%30.30 "HgN/A
3:30 AM37 °FClear.12 mph93%30.27 "HgN/A
3:00 AM37 °FClear.10 mph93%30.27 "HgN/A
2:30 AM37 °FClear.12 mph93%30.27 "HgN/A
2:00 AM37 °FClear.9 mph93%30.27 "HgN/A
1:30 AM37 °FClear.13 mph93%30.27 "HgN/A
1:00 AM37 °FClear.13 mph93%30.30 "HgN/A
12:30 AM39 °FClear.13 mph87%30.30 "HgN/A
12:00 AM37 °FClear.9 mph93%30.30 "HgN/A
Weather by CustomWeather, © 2016

See weather overviewHow to use our weather pages